Terminal Aerodrome Forecast
Issued by NWS

Home | Current Version | Previous Version | Text Only | Print | Product List | Glossary On
Versions: 1 2 3 4 5 6 7 8 9 10 11 12 13
000
FTUS41 KAKQ 310538
TAFPHF
TAF
KPHF 310538Z 3106/0106 22004KT P6SM OVC100
     FM311200 22009KT P6SM SCT080 OVC100
     FM312300 20005KT P6SM SCT100=

USA.gov is the U.S. government's official web portal to all federal, state and local government web resources and services.